Date,TemperatureHighF,TemperatureAvgF,TemperatureLowF,DewpointHighF,DewpointAvgF,DewpointLowF,HumidityHigh,HumidityAvg,HumidityLow,PressureMaxIn,PressureMinIn,WindSpeedMaxMPH,WindSpeedAvgMPH,GustSpeedMaxMPH,PrecipitationSumIn
2013-1-1,62,47,34,19,9,0,30,22,19,30.27,30.15,8,2,12,0.00
2013-1-2,65,51,39,20,11,2,21,20,18,30.18,30.06,8,2,15,0.00
2013-1-3,66,52,39,21,12,3,21,20,17,30.21,30.03,9,3,17,0.00
2013-1-4,65,47,34,20,8,0,22,20,18,30.30,30.18,4,2,9,0.00
2013-1-5,65,47,33,21,8,-1,23,20,18,30.30,30.12,4,2,9,0.00
2013-1-6,62,49,35,20,12,0,36,23,19,30.12,29.97,14,4,28,0.00
2013-1-7,68,55,43,30,17,8,54,24,17,30.03,29.94,14,4,26,0.00
2013-1-8,78,63,46,26,19,6,21,18,15,30.12,29.97,10,4,26,0.00
2013-1-9,75,59,48,26,17,10,22,19,16,30.15,29.94,5,2,8,0.00
2013-1-10,59,51,41,26,15,4,37,24,19,30.00,29.79,12,6,26,0.00
2013-1-11,58,47,38,16,8,2,21,20,19,30.12,30.00,8,4,16,0.00
2013-1-12,58,43,32,16,6,0,28,21,19,30.15,29.97,7,2,13,0.00
2013-1-13,57,43,30,16,6,-4,23,21,19,30.15,30.03,11,3,19,0.00
2013-1-14,54,42,34,14,5,-1,22,21,19,30.33,30.15,15,6,28,0.00
2013-1-15,61,46,32,19,7,-1,23,21,19,30.41,30.30,9,4,17,0.00
2013-1-16,69,52,36,23,11,0,22,20,17,30.39,30.24,7,3,14,0.00
2013-1-17,74,61,50,25,18,10,21,19,16,30.30,30.15,8,3,15,0.00
2013-1-18,76,60,45,26,16,6,21,18,15,30.24,30.12,7,2,13,0.00
2013-1-19,77,60,47,26,17,7,21,19,15,30.24,30.15,7,2,13,0.00
2013-1-20,79,59,42,27,16,4,21,18,15,30.18,30.09,7,2,13,0.00
2013-1-21,81,63,48,28,19,8,21,18,14,30.15,30.06,9,3,20,0.00
2013-1-22,80,60,44,28,16,6,21,18,15,30.15,30.09,4,1,10,0.00
2013-1-23,76,62,50,26,18,10,21,19,15,30.15,30.06,3,1,6,0.00
2013-1-24,72,63,57,26,20,17,28,19,16,30.21,30.06,5,1,9,0.00
2013-1-25,65,58,56,56,48,26,93,69,29,30.21,30.00,2,0,6,0.32
2013-1-26,68,60,55,58,50,39,95,72,35,30.00,29.88,4,1,9,0.00
2013-1-27,66,56,49,55,32,12,94,49,18,29.97,29.91,8,3,17,0.00
2013-1-28,65,51,40,25,15,6,44,24,18,30.12,29.91,10,4,22,0.00
2013-1-29,66,50,38,27,16,5,48,27,18,30.21,30.06,11,4,21,0.00
2013-1-30,72,53,42,26,20,14,50,28,16,30.33,30.21,5,2,9,0.00
2013-1-31,78,57,43,26,21,15,41,27,15,30.24,30.12,5,2,9,0.00
2013-2-1,77,59,45,26,20,13,37,23,15,30.21,30.09,4,2,8,0.00
2013-2-2,82,63,52,29,21,14,26,20,14,30.24,30.15,4,1,8,0.00
2013-2-3,78,65,53,32,22,15,35,20,15,30.15,30.00,5,2,10,0.00
2013-2-4,83,63,49,29,20,13,27,19,14,30.06,29.97,6,2,11,0.00
2013-2-5,81,63,47,28,19,10,22,18,14,30.00,29.91,8,3,17,0.00
2013-2-6,76,60,47,27,22,15,41,24,15,30.06,29.85,11,4,24,0.00
2013-2-7,76,58,42,26,18,7,28,22,15,30.06,29.91,7,3,20,0.00
2013-2-8,61,48,39,29,18,12,53,31,19,29.91,29.82,11,6,26,0.00
2013-2-9,59,48,38,17,13,9,36,25,19,30.03,29.82,11,6,21,0.00
2013-2-10,66,50,37,21,13,8,31,23,18,30.03,29.97,11,4,17,0.00
2013-2-11,60,50,38,19,12,1,38,22,19,30.18,29.97,16,5,28,0.00
2013-2-12,68,45,34,22,7,-1,22,20,17,30.30,30.18,6,2,13,0.00
2013-2-13,77,55,38,26,13,2,21,19,15,30.21,30.09,8,2,14,0.00
2013-2-14,78,60,43,26,16,5,23,18,15,30.21,30.09,9,3,17,0.00
2013-2-15,81,63,50,29,19,9,21,18,14,30.27,30.15,8,2,15,0.00
2013-2-16,83,62,48,29,18,8,21,18,14,30.24,29.97,6,2,10,0.00
2013-2-17,77,60,44,26,16,6,21,18,15,29.97,29.85,11,4,24,0.00
2013-2-18,77,59,42,26,17,4,30,19,15,30.00,29.88,6,2,13,0.00
2013-2-19,61,52,45,26,18,14,38,26,19,29.88,29.65,17,8,28,0.00
2013-2-20,60,49,40,33,17,12,68,30,19,29.91,29.62,13,6,26,0.08
2013-2-21,66,51,38,21,13,2,30,22,18,30.06,29.88,10,4,23,0.00
2013-2-22,71,52,35,24,12,0,25,20,17,30.15,30.03,5,2,11,0.00
2013-2-23,71,57,41,24,17,8,31,21,17,30.12,29.82,18,5,34,0.00
2013-2-24,65,55,46,20,14,6,21,19,18,30.18,29.94,19,9,31,0.00
2013-2-25,72,53,0,24,13,1,22,19,16,30.21,30.03,5,2,12,0.00
2013-2-26,73,57,39,24,15,2,23,19,16,30.18,29.94,10,4,22,0.00
2013-2-27,71,57,42,24,15,4,21,19,17,30.30,30.18,12,4,23,0.00
2013-2-28,81,61,41,28,17,4,21,18,14,30.33,30.27,7,2,12,0.00
2013-3-1,86,68,49,30,21,9,21,17,13,30.33,30.24,5,2,11,0.00
2013-3-2,87,68,50,31,21,9,21,17,13,30.27,30.06,6,2,11,0.00
2013-3-3,84,71,60,30,23,17,19,17,13,30.06,29.88,10,6,23,0.00
2013-3-4,80,64,51,29,21,15,31,20,15,30.03,29.91,10,5,22,0.00
2013-3-5,82,64,49,30,22,14,36,21,14,30.06,29.97,8,4,17,0.00
2013-3-6,71,60,52,28,20,16,35,22,17,30.03,29.91,13,7,26,0.00
2013-3-7,70,58,49,24,19,14,29,22,17,29.94,29.82,9,5,23,0.00
2013-3-8,62,52,45,34,19,13,58,28,19,29.94,29.74,12,6,26,0.04
2013-3-9,70,57,47,24,20,17,37,25,17,30.12,29.91,13,6,26,0.00
2013-3-10,78,62,44,27,21,13,45,22,15,30.24,30.12,12,5,23,0.00
2013-3-11,87,64,45,30,18,6,21,17,13,30.18,30.03,5,2,10,0.00
2013-3-12,91,70,49,32,22,9,21,17,12,30.09,30.03,6,2,11,0.00
2013-3-13,97,74,55,40,25,15,20,16,11,30.15,30.03,5,2,10,0.00
2013-3-14,99,77,58,40,26,16,19,16,11,30.12,30.00,5,2,10,0.00
2013-3-15,98,78,61,40,27,18,19,15,11,30.03,29.88,8,3,17,0.00
2013-3-16,92,79,70,32,27,23,17,15,12,29.88,29.79,12,7,23,0.00
2013-3-17,92,74,63,32,25,19,21,16,12,29.94,29.79,11,5,23,0.00
2013-3-18,90,70,52,32,26,18,45,20,12,29.97,29.85,10,4,16,0.00
2013-3-19,88,73,60,31,24,18,20,16,13,30.06,29.91,12,6,22,0.00
2013-3-20,88,72,60,31,24,17,19,16,13,30.03,29.85,11,4,25,0.00
2013-3-21,90,73,58,32,24,18,25,17,12,29.88,29.74,12,6,23,0.00
2013-3-22,88,71,55,31,24,17,26,18,13,29.85,29.71,13,6,22,0.00
2013-3-23,86,69,57,30,22,15,20,17,13,30.03,29.82,8,3,15,0.00
2013-3-24,87,67,48,31,21,8,21,17,13,30.03,29.94,5,2,10,0.00
2013-3-25,88,70,50,32,22,10,21,17,13,30.00,29.91,7,2,13,0.00
2013-3-26,89,73,58,32,24,16,19,16,13,29.91,29.82,12,5,26,0.00
2013-3-27,87,72,61,30,24,18,20,16,13,29.97,29.85,13,7,26,0.00
2013-3-28,90,73,58,32,24,17,22,16,12,30.06,29.91,10,4,20,0.00
2013-3-29,91,73,55,32,24,14,20,16,12,30.09,30.00,7,2,13,0.00
2013-3-30,90,76,63,32,25,19,18,16,12,30.06,29.94,11,5,23,0.00
2013-3-31,84,70,60,30,24,18,24,17,14,30.03,29.97,15,7,27,0.00
2013-4-1,78,65,56,27,23,18,29,21,15,30.06,29.97,14,9,28,0.00
2013-4-2,90,70,55,32,25,17,30,19,12,30.03,29.91,11,4,20,0.00
2013-4-3,96,75,54,39,25,14,20,16,11,30.06,29.97,6,2,12,0.00
2013-4-4,93,76,61,33,25,18,19,16,12,30.03,29.94,12,5,25,0.00
2013-4-5,85,71,63,30,26,20,25,19,13,30.00,29.88,16,9,28,0.00
2013-4-6,92,71,56,32,28,23,39,21,12,30.00,29.88,12,6,24,0.00
2013-4-7,92,72,56,34,28,22,43,21,12,29.91,29.71,11,4,25,0.00
2013-4-8,67,62,56,31,21,15,34,21,17,29.74,29.56,13,9,29,0.00
2013-4-9,80,65,52,28,20,13,21,18,15,29.97,29.71,13,6,25,0.00
2013-4-10,89,72,56,32,23,15,20,16,13,30.09,29.94,14,6,25,0.00
2013-4-11,92,72,54,32,23,14,20,16,12,30.00,29.74,10,3,20,0.00
2013-4-12,95,74,55,38,25,18,26,17,11,29.85,29.74,7,2,15,0.00
2013-4-13,92,75,57,32,24,15,19,16,12,29.85,29.71,14,5,27,0.00
2013-4-14,75,64,57,32,24,20,39,23,16,29.76,29.68,17,12,31,0.00
2013-4-15,71,60,55,32,26,18,40,28,17,29.76,29.68,21,11,35,0.00
2013-4-16,73,65,54,24,20,14,26,18,16,29.91,29.71,21,9,27,0.00
2013-4-17,76,62,50,26,19,12,21,19,15,30.12,29.91,13,7,26,0.00
2013-4-18,83,65,49,29,20,8,21,18,14,30.24,30.12,9,4,20,0.00
2013-4-19,93,73,53,32,24,14,21,16,12,30.18,29.97,7,3,12,0.00
2013-4-20,98,77,55,40,26,14,20,16,11,30.00,29.91,5,2,13,0.00
2013-4-21,98,79,59,40,27,16,19,15,11,30.00,29.91,9,3,16,0.00
2013-4-22,96,78,61,39,27,18,19,15,11,29.97,29.79,14,6,26,0.00
2013-4-23,96,77,57,39,27,18,31,16,11,29.97,29.79,15,5,28,0.00
2013-4-24,94,72,55,38,25,15,28,18,11,29.91,29.82,10,3,21,0.00
2013-4-25,80,68,57,29,25,20,32,21,15,30.03,29.85,14,8,28,0.00
2013-4-26,97,76,56,40,27,19,28,17,11,30.12,30.03,7,2,18,0.00
2013-4-27,105,82,58,42,29,16,19,15,11,30.09,29.94,9,3,17,0.00
2013-4-28,107,85,62,43,30,18,19,14,11,29.97,29.79,11,4,24,0.00
2013-4-29,105,87,66,42,32,20,18,14,11,29.82,29.71,11,5,25,0.00
2013-4-30,96,79,62,39,28,19,34,16,11,29.76,29.71,13,6,29,0.00
2013-5-1,96,78,57,39,31,23,39,20,11,30.09,29.76,11,6,22,0.00
2013-5-2,96,78,63,39,27,19,18,15,11,30.27,30.06,9,4,20,0.00
2013-5-3,101,83,63,40,29,19,18,15,11,30.06,29.79,6,3,13,0.00
2013-5-4,98,79,62,39,28,18,19,15,11,29.82,29.68,11,5,23,0.00
2013-5-5,84,69,60,30,24,18,32,19,14,29.91,29.74,12,6,27,0.00
2013-5-6,85,68,58,31,25,17,33,20,13,30.00,29.88,11,5,23,0.00
2013-5-7,81,67,56,28,24,19,25,20,14,30.00,29.91,13,6,26,0.00
2013-5-8,88,70,57,31,25,19,29,19,13,30.06,29.97,10,6,23,0.00
2013-5-9,92,72,60,32,26,21,25,18,12,30.03,29.97,11,5,22,0.00
2013-5-10,100,79,56,40,30,23,37,19,11,30.06,29.94,10,3,19,0.00
2013-5-11,106,86,65,43,31,20,18,14,11,30.09,29.97,7,2,15,0.00
2013-5-12,109,89,68,43,32,21,17,14,11,30.09,29.94,6,2,13,0.00
2013-5-13,111,91,69,43,33,23,17,13,10,30.00,29.88,10,3,23,0.00
2013-5-14,108,91,72,43,33,23,16,13,11,29.94,29.82,10,6,30,0.00
2013-5-15,96,81,67,39,28,21,17,15,11,29.94,29.85,16,7,28,0.00
2013-5-16,95,80,67,39,27,21,17,15,11,29.88,29.76,14,8,28,0.00
2013-5-17,87,74,65,33,28,23,29,19,13,29.91,29.79,15,8,30,0.00
2013-5-18,95,76,60,38,30,24,35,19,11,29.97,29.85,11,7,23,0.00
2013-5-19,104,82,62,41,30,22,26,16,11,29.94,29.82,10,4,20,0.00
2013-5-20,102,83,64,40,29,20,20,15,11,30.00,29.88,11,3,22,0.00
2013-5-21,105,84,63,42,30,19,18,14,11,29.91,29.74,12,4,26,0.00
2013-5-22,98,81,64,39,28,20,23,15,11,29.76,29.68,13,6,30,0.00
2013-5-23,92,73,59,32,26,19,24,17,12,29.85,29.74,13,8,26,0.00
2013-5-24,95,76,60,38,26,18,25,17,11,29.94,29.82,11,6,23,0.00
2013-5-25,94,76,57,37,25,17,25,16,11,29.94,29.85,12,6,25,0.00
2013-5-26,92,77,65,32,26,20,20,15,12,29.97,29.88,14,8,32,0.00
2013-5-27,99,80,63,40,29,20,26,16,11,29.91,29.76,13,7,26,0.00
2013-5-28,90,77,68,32,28,23,22,17,12,29.76,29.68,18,8,32,0.00
2013-5-29,103,83,62,41,31,24,27,16,11,29.79,29.68,13,4,28,0.00
2013-5-30,103,84,64,40,31,23,27,16,11,29.85,29.71,10,3,21,0.00
2013-5-31,107,86,67,43,34,25,27,16,11,29.91,29.79,6,2,13,0.00
2013-6-1,111,91,69,43,34,22,21,13,10,29.85,29.71,6,2,11,0.00
2013-6-2,109,89,70,43,33,23,17,14,10,29.76,29.68,10,4,23,0.00
2013-6-3,105,84,63,42,30,19,19,14,11,29.82,29.71,10,4,21,0.00
2013-6-4,104,82,62,41,31,23,29,17,11,29.88,29.76,14,5,26,0.00
2013-6-5,107,86,63,43,31,19,21,14,11,29.91,29.82,12,4,23,0.00
2013-6-6,109,89,68,43,32,22,17,14,10,29.85,29.76,12,5,23,0.00
2013-6-7,116,90,68,46,33,21,17,13,10,29.79,29.71,10,2,19,0.00
2013-6-8,108,89,70,43,33,23,19,14,11,29.85,29.68,7,2,14,0.00
2013-6-9,107,87,69,42,34,24,24,15,11,29.88,29.79,8,2,17,0.00
2013-6-10,104,84,66,42,30,20,18,14,11,29.88,29.79,10,4,22,0.00
2013-6-11,113,88,64,43,32,19,20,14,10,29.91,29.82,9,3,17,0.00
2013-6-12,109,89,70,43,32,23,17,14,10,29.91,29.82,12,4,23,0.00
2013-6-13,108,88,67,43,32,21,17,14,11,29.94,29.79,11,5,25,0.00
2013-6-14,108,86,64,42,31,19,18,14,11,29.88,29.76,9,3,20,0.00
2013-6-15,105,84,62,42,30,18,23,15,11,29.88,29.76,12,4,25,0.00
2013-6-16,107,85,61,43,31,18,23,15,11,29.94,29.85,10,4,23,0.00
2013-6-17,110,88,65,43,32,20,18,14,10,29.91,29.82,10,4,22,0.00
2013-6-18,107,88,69,43,32,22,17,14,11,29.85,29.74,13,6,30,0.00
2013-6-19,103,86,70,41,31,23,17,14,11,29.79,29.71,12,7,27,0.00
2013-6-20,106,87,68,43,32,21,17,14,11,29.82,29.71,10,4,22,0.00
2013-6-21,104,87,71,42,31,23,17,14,11,29.85,29.74,11,6,24,0.00
2013-6-22,106,87,70,43,32,23,17,14,11,29.85,29.74,12,6,24,0.00
2013-6-23,100,84,69,40,30,23,20,14,11,29.79,29.71,13,6,27,0.00
2013-6-24,97,79,65,39,29,23,29,17,11,29.85,29.74,14,7,28,0.00
2013-6-25,104,86,67,41,34,28,34,17,12,29.94,29.82,12,7,22,0.00
2013-6-26,110,92,73,43,35,27,21,14,10,29.97,29.88,6,2,14,0.00
2013-6-27,115,94,76,45,37,28,18,14,10,30.03,29.94,6,2,16,0.00
2013-6-28,119,108,94,48,42,38,14,11,10,29.94,29.82,10,7,24,0.00
2013-6-29,124,102,83,51,39,28,15,12,10,29.82,29.74,11,4,22,0.00
2013-6-30,120,99,79,48,37,27,15,12,10,29.82,29.71,9,2,17,0.00
2013-7-1,114,98,84,44,38,30,22,13,10,29.88,29.79,12,4,25,0.00
2013-7-2,114,97,86,44,36,30,14,12,10,30.00,29.79,15,5,28,0.00
2013-7-3,116,99,90,46,37,31,14,12,10,29.85,29.74,12,6,30,0.00
2013-7-4,114,96,80,44,36,27,15,12,10,29.82,29.68,13,5,27,0.00
2013-7-5,108,93,76,43,34,25,15,13,11,29.82,29.74,8,3,15,0.00
2013-7-6,113,91,74,44,35,27,22,14,10,29.82,29.71,8,2,18,0.00
2013-7-7,116,95,75,46,36,24,18,13,10,29.82,29.74,11,4,25,0.00
2013-7-8,119,96,74,48,36,24,16,13,10,29.91,29.79,9,2,17,0.00
2013-7-9,113,97,84,51,39,30,29,14,10,30.06,29.88,8,4,18,0.00
2013-7-10,105,90,81,60,41,28,44,20,12,30.00,29.85,12,4,23,0.00
2013-7-11,96,85,79,41,33,27,21,16,12,30.00,29.85,7,2,14,0.00
2013-7-12,109,90,75,43,37,29,25,16,11,29.91,29.79,10,3,20,0.00
2013-7-13,113,94,74,43,35,25,18,13,10,29.94,29.79,10,3,20,0.00
2013-7-14,115,96,78,45,35,27,15,12,10,29.91,29.76,9,3,19,0.00
2013-7-15,112,93,77,43,34,26,15,13,10,29.82,29.74,15,4,31,0.00
2013-7-16,107,92,82,42,33,28,14,13,11,29.91,29.79,9,4,21,0.00
2013-7-17,104,88,67,41,32,21,17,14,11,30.00,29.88,7,2,17,0.00
2013-7-18,113,93,72,44,34,23,16,13,10,29.94,29.79,8,3,20,0.00
2013-7-19,106,91,77,45,35,26,23,14,11,29.94,29.76,7,2,14,0.00
2013-7-20,104,89,81,62,45,28,51,24,12,29.94,29.76,7,3,13,0.00
2013-7-21,97,84,75,66,50,38,72,34,16,29.94,29.79,8,3,15,0.12
2013-7-22,103,86,74,63,45,32,66,28,12,29.97,29.88,10,2,21,0.00
2013-7-23,108,90,74,48,39,29,39,19,11,29.97,29.85,11,3,22,0.00
2013-7-24,113,94,78,44,36,28,20,13,10,29.91,29.79,11,5,22,0.00
2013-7-25,112,93,77,43,35,26,18,13,10,30.00,29.85,7,3,15,0.00
2013-7-26,101,87,78,57,36,27,48,17,12,30.06,29.94,4,1,10,0.00
2013-7-27,112,93,78,43,37,30,21,14,10,29.97,29.79,10,3,21,0.00
2013-7-28,108,93,79,42,34,27,15,13,11,29.82,29.76,12,6,26,0.00
2013-7-29,108,89,70,43,32,23,17,14,11,29.94,29.82,10,4,18,0.00
2013-7-30,109,89,72,43,32,23,16,13,11,30.03,29.94,8,2,17,0.00
2013-7-31,111,90,73,43,33,24,19,13,10,30.00,29.85,10,3,20,0.00
2013-8-1,107,86,68,43,31,22,17,14,11,29.91,29.82,10,4,22,0.00
2013-8-2,109,87,67,43,31,21,17,14,11,29.88,29.79,9,3,20,0.00
2013-8-3,110,88,67,43,32,21,17,14,10,29.94,29.85,8,2,17,0.00
2013-8-4,110,90,71,43,33,23,17,13,10,29.94,29.85,8,3,17,0.00
2013-8-5,109,90,72,43,33,24,16,13,11,29.94,29.85,8,3,18,0.00
2013-8-6,109,88,70,43,32,23,17,14,11,29.97,29.88,10,3,24,0.00
2013-8-7,105,88,70,42,32,23,17,14,11,29.97,29.88,14,6,29,0.00
2013-8-8,104,89,75,42,32,24,15,13,11,29.91,29.82,11,5,24,0.00
2013-8-9,106,85,65,43,30,20,18,14,11,29.88,29.82,9,4,21,0.00
2013-8-10,106,85,66,42,31,20,18,14,11,29.94,29.85,9,3,17,0.00
2013-8-11,106,86,66,43,31,20,18,14,11,29.94,29.82,8,2,17,0.00
2013-8-12,109,88,68,43,32,21,17,14,10,29.91,29.82,8,2,17,0.00
2013-8-13,109,89,68,43,32,22,17,14,11,29.97,29.85,6,2,13,0.00
2013-8-14,111,91,70,43,33,23,17,13,10,29.94,29.82,6,2,14,0.00
2013-8-15,113,93,76,44,34,25,15,13,10,29.94,29.82,8,3,17,0.00
2013-8-16,116,96,78,46,36,27,15,12,10,29.91,29.82,10,3,22,0.00
2013-8-17,115,95,79,45,35,27,15,13,10,29.94,29.79,8,2,17,0.00
2013-8-18,113,95,81,43,35,27,14,13,10,29.91,29.79,8,3,17,0.00
2013-8-19,111,95,83,43,35,28,15,13,10,29.94,29.82,7,3,13,0.00
2013-8-20,113,93,77,43,35,26,18,13,10,29.88,29.76,10,2,20,0.00
2013-8-21,114,94,76,44,35,25,15,13,10,29.91,29.82,6,2,15,0.00
2013-8-22,112,96,82,43,37,28,16,13,10,29.91,29.79,9,3,22,0.00
2013-8-23,108,92,78,42,36,28,20,14,11,29.88,29.74,10,2,17,0.00
2013-8-24,101,85,75,57,40,26,41,22,12,29.94,29.79,11,4,22,0.00
2013-8-25,97,80,72,57,47,38,50,33,13,30.00,29.88,9,2,18,0.00
2013-8-26,84,77,74,68,59,48,77,54,34,30.03,29.88,4,1,8,0.00
2013-8-27,105,87,72,60,45,32,64,29,12,29.88,29.76,6,2,11,0.04
2013-8-28,109,92,76,46,39,30,33,17,10,29.91,29.79,9,2,17,0.00
2013-8-29,102,89,80,57,46,30,45,25,12,30.06,29.91,9,4,17,0.00
2013-8-30,101,88,80,66,49,36,62,30,12,30.06,29.94,7,3,13,0.00
2013-8-31,105,90,80,50,42,35,35,20,12,29.97,29.82,10,4,23,0.00
2013-9-1,109,92,79,47,40,33,31,17,11,29.91,29.82,7,4,17,0.00
2013-9-2,110,91,75,43,37,31,22,15,10,29.91,29.79,8,2,17,0.00
2013-9-3,109,90,78,43,35,28,24,15,11,29.91,29.82,9,1,17,0.00
2013-9-4,105,89,78,42,35,27,18,15,12,29.97,29.88,15,2,28,0.00
2013-9-5,111,91,77,43,34,28,20,14,10,29.91,29.85,8,2,17,0.00
2013-9-6,112,91,77,43,34,26,16,13,10,29.91,29.82,12,2,19,0.00
2013-9-7,102,87,76,43,38,31,28,18,12,29.97,29.88,7,3,13,0.00
2013-9-8,108,88,73,46,39,28,33,19,11,29.88,29.76,8,2,14,0.00
2013-9-9,110,88,73,44,34,27,36,15,10,29.82,29.71,9,3,19,0.04
2013-9-10,101,84,70,63,43,26,69,30,11,29.91,29.79,7,2,17,0.00
2013-9-11,102,84,68,40,30,21,18,14,11,29.94,29.85,7,2,17,0.00
2013-9-12,105,86,68,42,31,22,17,14,11,29.91,29.79,7,2,15,0.00
2013-9-13,108,88,68,43,32,22,17,14,11,29.82,29.68,7,2,15,0.00
2013-9-14,110,91,72,43,33,23,16,13,10,29.74,29.65,6,2,14,0.00
2013-9-15,110,91,73,43,33,24,16,13,10,29.79,29.71,8,2,17,0.00
2013-9-16,110,92,75,43,33,24,16,13,10,29.82,29.71,8,2,17,0.00
2013-9-17,105,88,73,42,32,24,16,14,11,29.76,29.68,10,3,22,0.00
2013-9-18,102,82,64,40,29,20,18,15,11,29.76,29.68,10,3,18,0.00
2013-9-19,105,83,65,42,30,20,18,15,11,29.79,29.74,6,2,12,0.00
2013-9-20,103,82,66,40,29,20,20,15,11,29.82,29.74,9,3,19,0.00
2013-9-21,94,76,61,33,28,21,26,18,11,29.82,29.71,11,4,26,0.00
2013-9-22,91,74,64,34,27,19,30,18,12,29.82,29.71,9,4,18,0.00
2013-9-23,100,79,60,40,27,18,19,15,11,29.91,29.82,5,2,10,0.00
2013-9-24,100,81,64,40,29,20,18,15,11,29.94,29.79,9,3,17,0.00
2013-9-25,92,80,64,32,27,20,18,15,12,29.82,29.62,10,6,23,0.00
2013-9-26,82,69,61,29,24,18,24,18,14,29.88,29.65,10,5,24,0.00
2013-9-27,86,70,55,30,23,15,20,17,13,30.03,29.88,12,5,23,0.00
2013-9-28,93,74,56,33,24,15,20,16,11,30.09,30.00,5,2,12,0.00
2013-9-29,97,76,57,40,26,15,19,16,11,30.06,29.97,6,2,14,0.00
2013-9-30,95,57,0,39,27,18,19,16,11,30.00,29.85,5,2,11,0.00
2013-10-1,96,78,61,39,26,18,19,15,11,29.94,29.82,5,2,13,0.00
2013-10-2,95,78,65,38,26,20,22,15,11,29.91,29.79,10,3,20,0.00
2013-10-3,87,72,61,35,28,23,36,21,13,29.88,29.76,13,6,26,0.00
2013-10-4,83,73,62,29,24,19,19,16,14,30.15,29.88,21,11,32,0.00
2013-10-5,87,72,59,30,24,17,19,16,13,30.27,30.15,11,3,24,0.00
2013-10-6,94,76,60,38,25,18,19,16,11,30.15,30.03,4,2,11,0.00
2013-10-7,95,75,58,38,25,16,19,16,11,30.03,29.88,6,2,11,0.00
2013-10-8,90,73,60,33,25,18,34,18,12,29.88,29.74,12,5,25,0.00
2013-10-9,74,61,51,38,25,19,54,26,16,29.76,29.71,7,4,23,0.04
2013-10-10,74,60,49,27,22,18,39,24,16,30.00,29.76,11,4,23,0.04
2013-10-11,84,64,48,30,25,16,46,25,14,30.03,29.94,4,1,10,0.00
2013-10-12,87,69,53,30,22,14,23,17,13,29.97,29.88,5,2,13,0.00
2013-10-13,84,70,57,30,23,19,25,17,13,30.00,29.85,11,4,26,0.00
2013-10-14,87,70,54,30,24,14,27,17,13,30.06,29.97,7,3,13,0.00
2013-10-15,86,71,55,30,23,15,20,17,13,30.03,29.94,10,3,17,0.00
2013-10-16,87,70,58,30,23,16,19,17,13,30.12,30.03,6,2,13,0.00
2013-10-17,88,68,51,31,21,13,21,17,13,30.03,29.91,5,1,14,0.00
2013-10-18,92,72,53,32,23,14,21,16,12,30.03,29.94,5,2,10,0.00
2013-10-19,94,73,55,33,24,15,20,16,11,30.06,29.94,5,1,9,0.00
2013-10-20,95,72,54,38,23,14,20,16,11,29.97,29.85,8,2,16,0.00
2013-10-21,93,72,56,32,23,15,20,16,12,29.97,29.88,6,2,11,0.00
2013-10-22,93,73,57,33,24,15,19,16,11,30.00,29.91,6,2,11,0.00
2013-10-23,93,72,57,33,24,15,25,17,11,29.91,29.85,5,1,13,0.00
2013-10-24,89,67,52,32,27,20,45,24,13,30.00,29.85,6,1,11,0.00
2013-10-25,94,70,54,33,22,14,25,17,11,30.06,29.97,5,1,10,0.00
2013-10-26,95,74,59,33,24,17,19,16,11,30.09,29.97,6,2,12,0.00
2013-10-27,92,73,58,32,24,16,24,16,12,29.97,29.71,9,3,19,0.00
2013-10-28,63,60,56,27,23,18,26,24,18,29.85,29.68,10,7,27,0.00
2013-10-29,70,60,53,28,21,16,34,22,17,29.94,29.85,10,5,27,0.00
2013-10-30,77,61,47,27,21,14,35,22,15,30.06,29.94,5,2,12,0.00
2013-10-31,80,62,46,28,18,10,22,19,15,30.12,30.03,5,1,9,0.00
2013-11-1,86,65,50,30,20,9,21,18,13,30.12,30.03,5,1,11,0.00
2013-11-2,85,68,51,30,21,13,21,17,13,30.03,29.85,6,2,12,0.00
2013-11-3,81,68,54,29,22,16,27,18,14,29.88,29.76,13,4,25,0.00
2013-11-4,73,62,52,29,23,15,35,23,16,29.91,29.71,11,4,22,0.00
2013-11-5,73,63,50,24,19,10,21,18,16,30.18,29.91,14,7,26,0.00
2013-11-6,79,60,44,28,17,6,21,18,15,30.24,30.15,5,1,8,0.00
2013-11-7,84,64,49,30,19,8,21,18,14,30.15,30.03,4,1,11,0.00
2013-11-8,84,65,50,30,20,10,21,18,13,30.03,29.94,5,1,9,0.00
2013-11-9,83,63,49,29,18,9,21,18,14,30.09,29.97,4,1,9,0.00
2013-11-10,84,64,53,29,20,14,21,18,14,30.09,30.03,4,1,7,0.00
2013-11-11,89,69,52,32,22,13,21,17,13,30.12,30.00,7,2,11,0.00
2013-11-12,87,73,60,30,24,17,19,16,13,30.15,30.09,6,1,11,0.00
2013-11-13,90,72,58,32,23,16,19,16,12,30.09,29.97,5,2,9,0.00
2013-11-14,88,69,56,31,22,15,20,17,13,29.97,29.71,5,2,10,0.00
2013-11-15,73,65,58,26,22,16,28,20,16,29.71,29.62,10,4,23,0.00
2013-11-16,69,61,54,31,23,17,37,23,17,29.88,29.71,8,4,23,0.00
2013-11-17,73,58,47,28,22,17,40,26,16,30.09,29.88,4,1,10,0.00
2013-11-18,77,62,49,32,24,19,39,25,15,30.09,30.00,4,2,11,0.00
2013-11-19,70,62,53,32,25,20,39,25,17,30.03,29.88,10,4,24,0.00
2013-11-20,70,62,57,31,26,21,35,26,17,29.88,29.82,12,6,26,0.00
2013-11-21,72,61,55,36,29,20,46,31,19,29.88,29.79,6,2,10,0.00
2013-11-22,61,54,48,32,20,15,52,27,19,29.97,29.85,17,9,27,0.08
2013-11-23,65,56,50,21,18,14,28,23,18,30.09,29.94,9,6,16,0.00
2013-11-24,68,55,44,26,20,16,45,27,17,30.18,30.06,4,1,8,0.00
2013-11-25,75,57,43,26,20,11,42,25,16,30.21,30.12,6,2,12,0.00
2013-11-26,74,57,46,25,16,9,27,20,16,30.24,30.12,5,2,9,0.00
2013-11-27,72,58,49,24,17,11,25,19,16,30.12,29.97,5,2,10,0.00
2013-11-28,72,58,46,24,16,9,24,20,16,30.09,29.94,6,2,10,0.00
2013-11-29,69,58,48,31,20,10,40,23,17,30.18,30.06,4,1,8,0.00
2013-11-30,79,62,48,27,20,13,31,20,15,30.18,30.09,6,2,13,0.00
2013-12-1,79,63,51,27,19,10,21,18,15,30.21,30.15,6,1,10,0.00
2013-12-2,74,58,47,25,15,7,21,19,16,30.15,29.82,4,1,6,0.00
2013-12-3,74,60,51,30,20,13,34,22,16,29.82,29.65,10,4,19,0.00
2013-12-4,61,53,39,31,14,2,35,21,18,29.94,29.65,10,5,20,0.00
2013-12-5,61,47,36,18,8,1,23,20,19,30.09,29.91,5,1,10,0.00
2013-12-6,60,47,38,18,9,1,25,21,19,30.18,30.03,6,2,11,0.00
2013-12-7,61,49,39,22,14,5,38,25,19,30.03,29.85,9,4,27,0.00
2013-12-8,55,48,41,15,10,5,27,21,19,30.18,29.97,10,5,20,0.00
2013-12-9,54,44,33,14,6,-1,23,21,18,30.41,30.15,12,5,25,0.00
2013-12-10,62,44,32,19,6,-1,23,21,19,30.36,30.15,6,2,11,0.00
2013-12-11,68,51,34,21,11,-1,22,20,17,30.24,30.09,4,1,9,0.00
2013-12-12,69,56,45,25,15,8,26,20,17,30.21,30.09,9,2,16,0.00
2013-12-13,69,52,42,23,13,6,23,20,17,30.24,30.03,4,1,8,0.00
2013-12-14,69,60,49,23,18,8,21,19,17,30.36,30.18,12,5,25,0.00
2013-12-15,77,57,45,26,15,6,21,19,15,30.33,30.18,4,1,8,0.00
2013-12-16,77,60,49,26,17,9,21,19,15,30.21,30.12,4,1,8,0.00
2013-12-17,81,62,51,29,18,10,21,19,14,30.18,30.03,4,1,8,0.00
2013-12-18,78,62,54,26,19,14,23,18,15,30.03,29.76,7,1,13,0.00
2013-12-19,64,56,50,22,18,14,29,23,18,29.76,29.68,8,4,19,0.00
2013-12-20,67,55,43,21,16,11,36,22,17,29.88,29.71,13,3,23,0.00
2013-12-21,68,54,43,21,17,9,37,24,17,30.03,29.79,12,3,23,0.00
2013-12-22,71,53,40,24,17,11,39,25,17,30.27,30.03,4,2,9,0.00
2013-12-23,74,58,44,25,16,8,25,19,16,30.36,30.24,7,2,11,0.00
2013-12-24,79,60,45,27,17,6,23,18,15,30.24,30.15,7,2,15,0.00
2013-12-25,76,61,49,26,18,8,21,18,15,30.30,30.21,10,3,18,0.00
2013-12-26,77,61,47,26,17,7,21,18,15,30.24,30.18,8,3,15,0.00
2013-12-27,80,60,47,28,17,7,21,18,15,30.21,30.09,8,2,14,0.00
2013-12-28,74,56,46,25,14,6,21,19,16,30.09,29.94,5,1,9,0.00
2013-12-29,69,60,46,23,17,6,21,19,17,30.18,29.97,12,5,28,0.00
2013-12-30,74,53,38,25,12,2,21,19,16,30.24,30.15,3,1,7,0.00
2013-12-31,73,53,40,24,12,3,21,19,16,30.21,30.09,3,1,10,0.00
2014-1-1,76,56,42,26,14,4,21,19,15,30.15,30.06,4,1,8,0.00
2014-1-2,78,60,46,26,16,6,21,18,15,30.15,30.03,5,2,9,0.00